• In Österreich
  • Länderverzeichnis
  • Für 7 Tage
  • Wassertemperatur
  • Satellitenkarten
  • Wetterkarte
  • News
  • Widgets
  • user-avatar
    Anmelden

    Stündliche Wetter New York

    Heute, 22 September, Samstag

    Zeit Temperatur Niederschläge Wind Luftdruck Luftfeuchtigkeit
    00:00 +23°C° 0.1 mm 6 m/S 761 mmHg 82%
    01:00 +23°C° 0 mm 6 m/S 760 mmHg 84%
    02:00 +23°C° 0.1 mm 5 m/S 760 mmHg 85%
    03:00 +23°C° 0.1 mm 5 m/S 760 mmHg 86%
    04:00 +23°C° 0.1 mm 5 m/S 760 mmHg 87%
    05:00 +22°C° 0 mm 5 m/S 761 mmHg 82%
    06:00 +21°C° 0 mm 5 m/S 762 mmHg 77%
    07:00 +20°C° 0 mm 5 m/S 762 mmHg 72%
    08:00 +21°C° 0 mm 5 m/S 763 mmHg 64%
    09:00 +22°C° 0 mm 5 m/S 763 mmHg 56%
    10:00 +22°C° 0 mm 5 m/S 764 mmHg 48%
    11:00 +23°C° 0 mm 4 m/S 764 mmHg 45%
    12:00 +25°C° 0 mm 4 m/S 764 mmHg 42%
    13:00 +26°C° 0 mm 3 m/S 764 mmHg 39%
    14:00 +25°C° 0 mm 3 m/S 764 mmHg 41%
    15:00 +25°C° 0 mm 3 m/S 764 mmHg 43%
    16:00 +24°C° 0 mm 3 m/S 764 mmHg 45%
    17:00 +22°C° 0 mm 3 m/S 765 mmHg 46%
    18:00 +21°C° 0 mm 3 m/S 765 mmHg 47%
    19:00 +21°C° 0 mm 3 m/S 765 mmHg 48%
    20:00 +20°C° 0 mm 3 m/S 765 mmHg 49%
    21:00 +19°C° 0 mm 3 m/S 766 mmHg 49%
    22:00 +19°C° 0 mm 3 m/S 766 mmHg 50%
    23:00 +18°C° 0 mm 3 m/S 766 mmHg 51%

    Morgen, 23 September, Sonntag

    Zeit Temperatur Niederschläge Wind Luftdruck Luftfeuchtigkeit
    00:00 +18°C° 0 mm 3 m/S 766 mmHg 52%
    01:00 +17°C° 0 mm 3 m/S 766 mmHg 53%
    02:00 +17°C° 0 mm 3 m/S 766 mmHg 53%
    03:00 +17°C° 0 mm 3 m/S 766 mmHg 54%
    04:00 +17°C° 0 mm 3 m/S 766 mmHg 54%
    05:00 +17°C° 0.1 mm 2 m/S 766 mmHg 55%
    06:00 +16°C° 0.1 mm 2 m/S 766 mmHg 56%
    07:00 +16°C° 0.1 mm 2 m/S 767 mmHg 57%
    08:00 +17°C° 0.1 mm 2 m/S 767 mmHg 54%
    09:00 +18°C° 0.1 mm 2 m/S 767 mmHg 51%
    10:00 +19°C° 0.1 mm 2 m/S 767 mmHg 49%
    11:00 +21°C° 0 mm 1 m/S 767 mmHg 47%
    12:00 +22°C° 0 mm 1 m/S 767 mmHg 45%
    13:00 +23°C° 0 mm 1 m/S 767 mmHg 43%
    14:00 +23°C° 0 mm 1 m/S 767 mmHg 45%
    15:00 +23°C° 0 mm 1 m/S 767 mmHg 47%
    16:00 +23°C° 0 mm 1 m/S 767 mmHg 49%
    17:00 +22°C° 0 mm 1 m/S 767 mmHg 51%
    18:00 +21°C° 0 mm 1 m/S 767 mmHg 54%
    19:00 +19°C° 0 mm 2 m/S 768 mmHg 56%
    20:00 +18°C° 0 mm 2 m/S 768 mmHg 58%
    21:00 +18°C° 0 mm 2 m/S 768 mmHg 59%
    22:00 +17°C° 0 mm 2 m/S 769 mmHg 61%
    23:00 +17°C° 0 mm 2 m/S 769 mmHg 62%

    übermorgen, 24 September, Montag

    Zeit Temperatur Niederschläge Wind Luftdruck Luftfeuchtigkeit
    00:00 +17°C° 0 mm 2 m/S 769 mmHg 63%
    01:00 +16°C° 0 mm 2 m/S 770 mmHg 63%
    02:00 +16°C° 0 mm 3 m/S 770 mmHg 62%
    03:00 +14°C° 0 mm 3 m/S 770 mmHg 61%
    04:00 +14°C° 0 mm 3 m/S 770 mmHg 60%
    05:00 +14°C° 0 mm 4 m/S 771 mmHg 59%
    06:00 +14°C° 0 mm 4 m/S 771 mmHg 58%
    07:00 +14°C° 0 mm 5 m/S 772 mmHg 56%
    08:00 +16°C° 0 mm 5 m/S 772 mmHg 54%
    09:00 +19°C° 0 mm 6 m/S 773 mmHg 52%
    10:00 +21°C° 0 mm 6 m/S 773 mmHg 50%
    11:00 +21°C° 0 mm 6 m/S 773 mmHg 51%
    12:00 +22°C° 0 mm 7 m/S 773 mmHg 52%
    13:00 +23°C° 0 mm 7 m/S 772 mmHg 52%
    14:00 +22°C° 0 mm 7 m/S 772 mmHg 56%
    15:00 +21°C° 0 mm 7 m/S 772 mmHg 59%
    16:00 +21°C° 0 mm 7 m/S 772 mmHg 62%
    17:00 +20°C° 0 mm 7 m/S 772 mmHg 65%
    18:00 +18°C° 0 mm 7 m/S 772 mmHg 67%
    19:00 +19°C° 0 mm 6 m/S 773 mmHg 70%
    20:00 +19°C° 0 mm 6 m/S 773 mmHg 71%
    21:00 +19°C° 0 mm 6 m/S 773 mmHg 73%
    22:00 +19°C° 0 mm 6 m/S 773 mmHg 74%
    23:00 +18°C° 0.1 mm 7 m/S 773 mmHg 76%

    25 September, Dienstag

    Zeit Temperatur Niederschläge Wind Luftdruck Luftfeuchtigkeit
    00:00 +18°C° 0.1 mm 7 m/S 772 mmHg 78%
    01:00 +18°C° 0.1 mm 7 m/S 772 mmHg 80%
    02:00 +18°C° 0.9 mm 7 m/S 772 mmHg 82%
    03:00 +18°C° 0.9 mm 8 m/S 771 mmHg 83%
    04:00 +18°C° 0.9 mm 8 m/S 771 mmHg 85%
    05:00 +20°C° 2.2 mm 8 m/S 771 mmHg 86%
    06:00 +20°C° 2.2 mm 8 m/S 770 mmHg 87%
    07:00 +20°C° 2.2 mm 8 m/S 770 mmHg 88%
    08:00 +20°C° 3.8 mm 8 m/S 770 mmHg 88%
    09:00 +20°C° 3.8 mm 8 m/S 770 mmHg 89%
    10:00 +21°C° 3.8 mm 9 m/S 770 mmHg 89%
    11:00 +21°C° 3.7 mm 8 m/S 769 mmHg 90%
    12:00 +21°C° 3.7 mm 7 m/S 768 mmHg 90%
    13:00 +22°C° 3.7 mm 7 m/S 768 mmHg 90%
    14:00 +23°C° 1.3 mm 6 m/S 767 mmHg 87%
    15:00 +23°C° 1.3 mm 5 m/S 767 mmHg 83%
    16:00 +25°C° 1.3 mm 5 m/S 766 mmHg 80%
    17:00 +25°C° 0.3 mm 4 m/S 766 mmHg 82%
    18:00 +23°C° 0.3 mm 4 m/S 766 mmHg 85%
    19:00 +22°C° 0.3 mm 4 m/S 766 mmHg 87%
    20:00 +22°C° 0.4 mm 4 m/S 765 mmHg 89%
    21:00 +22°C° 0.4 mm 3 m/S 765 mmHg 91%
    22:00 +22°C° 0.4 mm 3 m/S 765 mmHg 93%
    23:00 +22°C° 0.4 mm 3 m/S 764 mmHg 94%

    26 September, Mittwoch

    Zeit Temperatur Niederschläge Wind Luftdruck Luftfeuchtigkeit
    00:00 +22°C° 0.4 mm 3 m/S 763 mmHg 95%
    01:00 +22°C° 0.4 mm 3 m/S 763 mmHg 96%
    02:00 +22°C° 0.3 mm 3 m/S 762 mmHg 97%
    03:00 +23°C° 0.3 mm 2 m/S 762 mmHg 98%
    04:00 +23°C° 0.3 mm 2 m/S 761 mmHg 98%
    05:00 +22°C° 0.3 mm 3 m/S 761 mmHg 98%
    06:00 +22°C° 0.3 mm 3 m/S 761 mmHg 97%
    07:00 +24°C° 0.3 mm 3 m/S 761 mmHg 96%
    08:00 +24°C° 0.2 mm 3 m/S 761 mmHg 93%
    09:00 +25°C° 0.2 mm 3 m/S 761 mmHg 89%
    10:00 +26°C° 0.2 mm 3 m/S 760 mmHg 86%
    11:00 +27°C° 0 mm 3 m/S 760 mmHg 81%
    12:00 +28°C° 0 mm 3 m/S 759 mmHg 77%
    13:00 +28°C° 0 mm 3 m/S 759 mmHg 73%
    14:00 +28°C° 0.4 mm 3 m/S 759 mmHg 72%
    15:00 +28°C° 0.4 mm 3 m/S 759 mmHg 72%
    16:00 +28°C° 0.4 mm 3 m/S 758 mmHg 71%
    17:00 +27°C° 0.4 mm 3 m/S 759 mmHg 74%
    18:00 +27°C° 0.4 mm 2 m/S 759 mmHg 76%
    19:00 +26°C° 0.4 mm 2 m/S 759 mmHg 79%
    20:00 +26°C° 0.4 mm 2 m/S 759 mmHg 80%
    21:00 +25°C° 0.4 mm 2 m/S 759 mmHg 81%
    22:00 +25°C° 0.4 mm 2 m/S 759 mmHg 83%
    23:00 +25°C° 0.2 mm 2 m/S 759 mmHg 84%

    27 September, Donnerstag

    Zeit Temperatur Niederschläge Wind Luftdruck Luftfeuchtigkeit
    00:00 +24°C° 0.2 mm 2 m/S 759 mmHg 85%
    01:00 +24°C° 0.2 mm 2 m/S 759 mmHg 86%
    02:00 +24°C° 0.7 mm 2 m/S 759 mmHg 87%
    03:00 +24°C° 0.7 mm 2 m/S 759 mmHg 88%
    04:00 +23°C° 0.7 mm 1 m/S 759 mmHg 89%
    05:00 +23°C° 0.2 mm 2 m/S 760 mmHg 88%
    06:00 +23°C° 0.2 mm 2 m/S 760 mmHg 87%
    07:00 +23°C° 0.2 mm 2 m/S 761 mmHg 86%
    08:00 +22°C° 0.5 mm 3 m/S 761 mmHg 85%
    09:00 +22°C° 0.5 mm 3 m/S 762 mmHg 84%
    10:00 +22°C° 0.5 mm 4 m/S 762 mmHg 83%
    11:00 +21°C° 1.2 mm 4 m/S 762 mmHg 84%
    12:00 +21°C° 1.2 mm 4 m/S 762 mmHg 86%
    13:00 +21°C° 1.2 mm 4 m/S 762 mmHg 87%
    14:00 +21°C° 4 mm 4 m/S 762 mmHg 88%
    15:00 +21°C° 4 mm 4 m/S 762 mmHg 88%
    16:00 +21°C° 4 mm 4 m/S 762 mmHg 89%
    17:00 +21°C° 0.8 mm 5 m/S 762 mmHg 88%
    18:00 +21°C° 0.8 mm 5 m/S 762 mmHg 88%
    19:00 +21°C° 0.8 mm 6 m/S 762 mmHg 88%
    20:00 +21°C° 0.2 mm 6 m/S 762 mmHg 87%
    21:00 +21°C° 0.2 mm 5 m/S 762 mmHg 87%
    22:00 +21°C° 0.2 mm 5 m/S 762 mmHg 87%
    23:00 +21°C° 0.1 mm 4 m/S 762 mmHg 88%
    Mehr zeigen